Reno, NV

6:45 PM PDT on October 19, 2017 (GMT -0700)
Reno-Tahoe International

Weather History for KRNO - November, 2012

Change the Weather History Date:

Thursday, November 29, 2012

  Actual Average Record
Temperature  
Mean Temperature 48 °F 38 °F  
Max Temperature 60 °F 49 °F 68 °F (1940)
Min Temperature 36 °F 27 °F 4 °F (2004)
Degree Days  
Heating Degree Days 17 27  
Month to date heating degree days 554 641  
Since 1 July heating degree days 783 1077  
Cooling Degree Days 0 0  
Month to date cooling degree days 0 0  
Year to date cooling degree days 1272 839  
Moisture  
Dew Point 29 °F    
Average Humidity 53    
Maximum Humidity 82    
Minimum Humidity 23    
Precipitation  
Precipitation 0.00 in 0.03 in 0.32 in (2000)
Month to date precipitation 0.43 0.79  
Year to date precipitation 3.24 6.34  
Snow  
Snow 0.00 in 0.10 in 5.40 in (1922)
Month to date snowfall 0.8 3.0  
Since 1 July snowfall 0.8 3.4  
Since 1 September snowfall 0.8 3.4  
Snow Depth 0.00 in    
Sea Level Pressure  
Sea Level Pressure 29.85 in    
Wind  
Wind Speed 26 mph (South)    
Max Wind Speed 48 mph    
Max Gust Speed 61 mph    
Visibility 10 miles    
Events      
T = Trace of Precipitation, MM = Missing Value Source: NWS Daily Summary

Daily Weather History Graph

Daily Weather History Graph

Search for Another Location

Airport or City:

Trip Planner

Search our weather history database for the weather conditions in past years. The results will help you decide how hot, cold, wet, or windy it might be!

Date:

Astronomy

Nov. 29, 2012 Rise Set
Actual Time 6:58 AM PST 4:36 PM PST
Civil Twilight 6:29 AM PST 5:05 PM PST
Nautical Twilight 5:55 AM PST 5:39 PM PST
Astronomical Twilight 5:23 AM PST 6:11 PM PST
Moon 5:43 PM PST (11/29) 7:49 AM PST (11/29)
Length of Visible Light 10h 36m
Length of Day
9h 37m
Full, 99% of the Moon is Illuminated
Nov 29
Full
Dec 6
Last Quarter
Dec 13
New
Dec 19
First Quarter
Dec 28
Full

Hourly Weather History & Observations

Time (PST) Temp. Windchill Dew Point Humidity Pressure Visibility Wind Dir Wind Speed Gust Speed Precip Events Conditions
12:55 AM 37.0 °F 33.3 °F 32.0 °F 82% 29.96 in 10.0 mi East 4.6 mph - N/A   Scattered Clouds
1:55 AM 39.9 °F - 33.1 °F 77% 29.94 in 10.0 mi Calm Calm - N/A   Scattered Clouds
2:55 AM 48.0 °F - 32.0 °F 54% 29.94 in 10.0 mi SSW 18.4 mph 28.8 mph N/A   Scattered Clouds
3:55 AM 52.0 °F - 30.9 °F 45% 29.91 in 10.0 mi SSW 19.6 mph 28.8 mph N/A   Scattered Clouds
4:55 AM 50.0 °F - 35.1 °F 57% 29.90 in 10.0 mi SSW 13.8 mph 25.3 mph N/A   Mostly Cloudy
5:55 AM 52.0 °F - 35.1 °F 53% 29.89 in 10.0 mi SSW 19.6 mph 34.5 mph N/A   Mostly Cloudy
6:55 AM 51.1 °F - 33.1 °F 50% 29.91 in 10.0 mi SSW 29.9 mph 35.7 mph N/A   Mostly Cloudy
7:55 AM 52.0 °F - 30.9 °F 45% 29.88 in 10.0 mi SSW 24.2 mph 38.0 mph N/A   Mostly Cloudy
8:55 AM 57.0 °F - 27.0 °F 32% 29.90 in 10.0 mi SSW 18.4 mph 28.8 mph N/A   Overcast
9:55 AM 57.9 °F - 19.9 °F 23% 29.90 in 10.0 mi SSW 13.8 mph 31.1 mph N/A   Overcast
10:55 AM 57.0 °F - 21.0 °F 25% 29.86 in 10.0 mi SSW 36.8 mph 58.7 mph N/A   Overcast
11:55 AM 59.0 °F - 21.9 °F 24% 29.88 in 10.0 mi South 33.4 mph 47.2 mph N/A   Mostly Cloudy
12:55 PM 59.0 °F - 21.9 °F 24% 29.87 in 10.0 mi South 27.6 mph 40.3 mph N/A   Overcast
1:55 PM 57.0 °F - 25.0 °F 29% 29.86 in 10.0 mi SSE 35.7 mph 54.1 mph N/A   Overcast
2:55 PM 55.9 °F - 28.0 °F 34% 29.81 in 10.0 mi South 38.0 mph 56.4 mph N/A   Overcast
3:55 PM 55.9 °F - 28.0 °F 34% 29.82 in 10.0 mi South 25.3 mph 43.7 mph N/A   Mostly Cloudy
4:55 PM 54.0 °F - 30.9 °F 41% 29.79 in 10.0 mi South 38.0 mph 50.6 mph N/A   Mostly Cloudy
5:55 PM 55.0 °F - 30.9 °F 40% 29.79 in 10.0 mi SSE 21.9 mph 32.2 mph N/A   Overcast
6:55 PM 55.9 °F - 32.0 °F 40% 29.80 in 10.0 mi South 32.2 mph 41.4 mph N/A   Overcast
7:55 PM 55.9 °F - 30.9 °F 39% 29.78 in 10.0 mi SSE 33.4 mph 47.2 mph N/A   Mostly Cloudy
8:55 PM 54.0 °F - 33.1 °F 45% 29.76 in 10.0 mi SSE 31.1 mph 43.7 mph N/A   Mostly Cloudy
9:55 PM 54.0 °F - 33.1 °F 45% 29.73 in 10.0 mi SSE 25.3 mph 48.3 mph N/A   Mostly Cloudy
10:55 PM 54.0 °F - 34.0 °F 47% 29.73 in 10.0 mi SSE 35.7 mph 50.6 mph N/A   Mostly Cloudy
11:55 PM 54.0 °F - 34.0 °F 47% 29.70 in 10.0 mi South 41.4 mph 57.5 mph N/A   Overcast